Domov               UVHVVR             MKGP            O straneh              
ZDRAVSTVENO VARSTVO RASTLIN
  MREŽA AGROMET. POSTAJ
 ► PROGNOSTIČNA OBVESTILA
AGROMETEOROLOŠKI PODATKI -
ARSO
OBVLADOVANJE TVEGANJ ZARADI
NEUGODNIH VREMENSKIH RAZMER
  ► NARAVNE NESREČE
  ► SUŠA/MOČA
  ► NAMAKANJE
  ► ŽLED (gozdarstvo)
KARTOGRAFSKI PRIKAZI
SPLETNE POVEZAVE
PROJEKTI IN PUBLIKACIJE

AGROMETEOROLOŠKA MREŽA: VREMENSKE POSTAJE IN FENOLOŠKA OPAZOVANJA

Pregled podatkov za lokacijo Potoče, meteorološka postaja 861648

Pregled senzorjev na lokaciji

ID Ime Zadnja
vrednost
Datum
zadnje
spremembe
Tip
senzorja
4072 Omočenost lista (U) 0 U 23.3.2019 00:30 A730WET
4073 Padavine (mm) 0 mm 23.3.2019 00:30 Rain-O-Matic
4071 Relativna vlaga 2 m (% RH) 33,05 % RH 23.3.2019 00:30 50YA
4070 Temperatura 2 m (°C) 14,86 °C 23.3.2019 00:30 50YA

Pregled podatkov zadnjih 24 ur

Zap.
št.
Datum in čas Potoče
Omočenost
lista
Padavine Relativna
vlaga
2
m
Temperatura
2
m
1 22.3.2019 23:30 0 0 33,1 14,9
2 22.3.2019 23:00 0 0 33,6 14,8
3 22.3.2019 22:30 0 0 32,2 15,2
4 22.3.2019 22:00 0 0 31,6 15,3
5 22.3.2019 21:30 0 0 31,5 15,5
6 22.3.2019 21:00 0 0 31,5 15,6
7 22.3.2019 20:30 0 0 31,3 15,8
8 22.3.2019 20:00 0 0 32,2 15,6
9 22.3.2019 19:30 0 0 33,1 15,5
10 22.3.2019 19:00 0 0 32 16,2
11 22.3.2019 18:30 0 0 32,4 16,3
12 22.3.2019 18:00 0 0 32,1 16,7
13 22.3.2019 17:30 0 0 26,5 18
14 22.3.2019 17:00 0 0 25 18,9
15 22.3.2019 16:30 0 0 25,8 19,3
16 22.3.2019 16:00 0 0 25,4 19,6
17 22.3.2019 15:30 0 0 23,8 20
18 22.3.2019 15:00 0 0 21,5 20,4
19 22.3.2019 14:30 0 0 20,1 20,3
20 22.3.2019 14:00 0 0 21,5 20,1
21 22.3.2019 13:30 0 0 23,5 19,6
22 22.3.2019 13:00 0 0 23,7 19,3
23 22.3.2019 12:30 0 0 26,3 18,5
24 22.3.2019 12:00 0 0 28,4 18
25 22.3.2019 11:30 0 0 29,8 17,4
26 22.3.2019 11:00 0 0 32,1 16,6
27 22.3.2019 10:30 0 0 33,7 16
28 22.3.2019 10:00 0 0 34,9 15
29 22.3.2019 09:30 0 0 37,1 14
30 22.3.2019 09:00 0 0 38 13,3
31 22.3.2019 08:30 0 0 39,4 12,5
32 22.3.2019 08:00 0 0 40 11,8
33 22.3.2019 07:30 0 0 40,7 11,2
34 22.3.2019 07:00 0 0 40,1 10,6
35 22.3.2019 06:30 0 0 39,4 10,3
36 22.3.2019 06:00 0 0 39,9 10,2
37 22.3.2019 05:30 0 0 39,5 10,2
38 22.3.2019 05:00 0 0 37,4 10,5
39 22.3.2019 04:30 0 0 37,6 10,5
40 22.3.2019 04:00 0 0 36,7 10,8
41 22.3.2019 03:30 0 0 37,8 10,6
42 22.3.2019 03:00 0 0 38,5 10,8
43 22.3.2019 02:30 0 0 40,4 10,7
44 22.3.2019 02:00 0 0 41,3 10,6
45 22.3.2019 01:30 0 0 42,2 10,5
46 22.3.2019 01:00 0 0 42,2 10,8
47 22.3.2019 00:30 0 0 42,9 10,7
48 22.3.2019 00:00 0 0 43 10,7
© 2011 Ministrstvo za kmetijstvo, gozdarstvo in prehrano. Vse pravice pridržane.